Northeast Iowa Regional Airport Charles City US
ICAO: KCCY
IATA: CCY
Category: Medium
Scheduled Services: No

Elevation: 1125 ft
TransAlt. 18000 ft.

Airport Communications:
WATERLOO APP/DEP:118.9
AWOS 3:125.525
FORT DODGE RDO:122.4
CTAF/UNICOM:122.8

KCCY Zoom In..

Runways:

(A) RW 04 length 2536 ft width 160 ft
LOC 108.30 / hdg 42

(B) RW 12 length 4000 ft width 75 ft
LOC 108.30 / hdg 122

(C) RW 18 length 1780 ft width 170 ft
LOC 108.30 / hdg 177

(D) RW 22 length 2536 ft width 160 ft
LOC 108.30 / hdg 222

(E) RW 30 length 4000 ft width 75 ft
LOC 108.30 / hdg 302

(F) RW 36 length 1780 ft width 170 ft
LOC 108.30 / hdg 357

Location; KCCY
Day. 23 / Time. 15.35 Zulu
* Altimeter: 30.12
* Temperature: 18° c. 64.4°f.
* Wind from: 170° Speed 15 kn.
Dewpoint: 16° c.
Visibility: 8 Statute Miles.
Clouds: Clear (automated report).

KCCY 231535Z AUTO 17015KT 8SM CLR 18/16 A3012 RMK AO2


Wind From 170°
Speed 15 kn.

 
 
jpsmedia.com for Web Design SOUNDCLOUD worldairports.se 2018   terms of use